Flag for Argentina Weather past 2 weeks in Mendoza, Mendoza, Argentina

Now
68 °F

Passing clouds.


Feels Like: 68 °F
Forecast: 58 / 66 °F
Wind: 9 mph from South

Location: Mendoza Aerodrome

Current Time: Mar 30, 2015 at 3:54:35 AM

Latest Report: Mar 30, 2015 at 3:00 AM


Visibility: N/A

Pressure: 29.95 "Hg

Humidity: 56%

Dew point: 52 °F

Location of MendozaLocation

Historic Weather in Mendoza — Graph

°F

Mendoza temperature yesterday

Maximum temperature yesterday: 86 °F (at 5:00 PM)
Minimum temperature yesterday: 55 °F (at 8:00 AM)
Average temperature yesterday: 70 °F

Past Weeks' High & Low Weather Summary

 TemperatureHumidityPressure
High95 °F (Mar 20, 5:00 PM)100% (Mar 24, 9:00 PM)30.27 "Hg (Mar 24, 9:00 PM)
Low52 °F (Mar 27, 6:00 AM)22% (Mar 20, 5:00 PM)29.80 "Hg (Mar 16, 4:00 PM)
Average71 °F61%30.02 "Hg
* Reported Mar 15 2:00 AM — Mar 30 2:00 AM, Mendoza, Weather by CustomWeather, © 2015

Note: Actual official high and low records may vary slightly from our data, if they occured in-between our weather recording intervals... More about our weather records

Advertising

Mendoza weather history for previous 24 hours

 ConditionsComfort  
Time TempWeatherWind HumidityBarometerVisibility
2:00 AM
Mon, Mar 30
66 °FClear.3 mph64%29.92 "Hg10 mi
1:00 AM68 °FClear.2 mph64%29.89 "Hg10 mi
12:00 AM72 °FClear.No wind57%29.89 "Hg10 mi
11:00 PM
Sun, Mar 29
72 °FClear.2 mph57%29.89 "Hg10 mi
10:00 PM72 °FClear.2 mph53%29.89 "Hg10 mi
9:00 PM75 °FClear.2 mph47%29.86 "Hg10 mi
8:00 PM81 °FPassing clouds.2 mph37%29.83 "HgN/A
7:00 PM84 °FPassing clouds.3 mph31%29.80 "HgN/A
6:00 PM86 °FPassing clouds.6 mph29%29.80 "HgN/A
5:00 PM86 °FPassing clouds.7 mph29%29.83 "HgN/A
4:00 PM84 °FPassing clouds.6 mph33%29.86 "HgN/A
3:00 PM82 °FSunny.7 mph37%29.89 "Hg10 mi
2:00 PM79 °FSunny.6 mph42%29.95 "Hg10 mi
1:00 PM77 °FSunny.3 mph44%29.95 "Hg10 mi
12:00 PM73 °FSunny.2 mph53%29.98 "Hg10 mi
11:00 AM70 °FSunny.2 mph57%30.01 "Hg10 mi
10:00 AM68 °FSunny.3 mph56%30.01 "Hg10 mi
9:00 AM61 °FSunny.No wind77%30.01 "Hg10 mi
8:00 AM55 °FSunny.No wind88%30.01 "Hg10 mi
7:00 AM57 °FSunny.No wind82%29.98 "Hg10 mi
6:00 AM57 °FClear.No wind82%29.98 "Hg10 mi
5:00 AM61 °FClear.No wind83%29.98 "Hg10 mi
4:00 AM61 °FClear.No wind83%29.98 "Hg10 mi
3:00 AM61 °FClear.3 mph77%30.01 "Hg10 mi
Weather by CustomWeather, © 2015

See weather overviewHow to use our weather pages